• In Hungary
  • List of Countries
  • For 7 days
  • Water Temperature
  • Satellite Maps
  • Weather Map
  • News
  • Weather Widgets
  • user-avatar
    Login

    Hourly Weather Korolevu

    Today, 24 November, Friday

    Time Temperature Precipitation Wind Pressure Humidity
    00:00 +24°C° 0 mm 3 mps 736 mmHg 91%
    01:00 +24°C° 0 mm 3 mps 736 mmHg 91%
    02:00 +24°C° 0 mm 3 mps 736 mmHg 91%
    03:00 +24°C° 0 mm 3 mps 736 mmHg 91%
    04:00 +24°C° 0 mm 3 mps 736 mmHg 91%
    05:00 +22°C° 0 mm 3 mps 736 mmHg 91%
    06:00 +24°C° 0 mm 3 mps 736 mmHg 90%
    07:00 +25°C° 0 mm 3 mps 736 mmHg 85%
    08:00 +26°C° 0 mm 3 mps 736 mmHg 80%
    09:00 +27°C° 0 mm 3 mps 737 mmHg 75%
    10:00 +28°C° 0 mm 3 mps 736 mmHg 72%
    11:00 +29°C° 0 mm 4 mps 736 mmHg 68%
    12:00 +29°C° 0 mm 4 mps 736 mmHg 65%
    13:00 +29°C° 0.1 mm 4 mps 736 mmHg 68%
    14:00 +28°C° 0.1 mm 4 mps 736 mmHg 71%
    15:00 +28°C° 0.1 mm 4 mps 735 mmHg 74%
    16:00 +27°C° 0.1 mm 4 mps 735 mmHg 78%
    17:00 +26°C° 0.1 mm 3 mps 735 mmHg 82%
    18:00 +25°C° 0 mm 3 mps 735 mmHg 88%
    19:00 +24°C° 0.1 mm 3 mps 735 mmHg 89%
    20:00 +24°C° 0.1 mm 3 mps 736 mmHg 90%
    21:00 +24°C° 0.1 mm 3 mps 736 mmHg 91%
    22:00 +24°C° 0.1 mm 3 mps 736 mmHg 91%
    23:00 +24°C° 0.1 mm 3 mps 736 mmHg 91%

    Tomorrow, 25 November, Saturday

    Time Temperature Precipitation Wind Pressure Humidity
    00:00 +24°C° 0.1 mm 3 mps 736 mmHg 91%
    01:00 +22°C° 0.1 mm 3 mps 735 mmHg 91%
    02:00 +22°C° 0.1 mm 3 mps 735 mmHg 92%
    03:00 +22°C° 0.1 mm 3 mps 735 mmHg 92%
    04:00 +22°C° 0.1 mm 3 mps 735 mmHg 92%
    05:00 +22°C° 0.1 mm 3 mps 735 mmHg 92%
    06:00 +22°C° 0.1 mm 3 mps 735 mmHg 92%
    07:00 +24°C° 0.1 mm 3 mps 735 mmHg 87%
    08:00 +25°C° 0.1 mm 3 mps 735 mmHg 82%
    09:00 +26°C° 0.1 mm 4 mps 735 mmHg 78%
    10:00 +27°C° 0.1 mm 4 mps 735 mmHg 74%
    11:00 +28°C° 0.1 mm 4 mps 735 mmHg 71%
    12:00 +29°C° 0.1 mm 4 mps 735 mmHg 68%
    13:00 +29°C° 0.1 mm 4 mps 735 mmHg 66%
    14:00 +29°C° 0.1 mm 4 mps 734 mmHg 65%
    15:00 +29°C° 0.1 mm 4 mps 734 mmHg 63%
    16:00 +28°C° 0 mm 4 mps 734 mmHg 68%
    17:00 +26°C° 0 mm 3 mps 734 mmHg 72%
    18:00 +25°C° 0 mm 3 mps 734 mmHg 77%
    19:00 +24°C° 0 mm 3 mps 734 mmHg 80%
    20:00 +22°C° 0 mm 3 mps 734 mmHg 84%
    21:00 +22°C° 0 mm 3 mps 735 mmHg 88%
    22:00 +22°C° 0 mm 3 mps 735 mmHg 89%
    23:00 +21°C° 0 mm 3 mps 735 mmHg 90%

    Day after tomorrow, 26 November, Sunday

    Time Temperature Precipitation Wind Pressure Humidity
    00:00 +21°C° 0 mm 3 mps 735 mmHg 90%
    01:00 +21°C° 0.1 mm 3 mps 734 mmHg 91%
    02:00 +21°C° 0.1 mm 3 mps 734 mmHg 92%
    03:00 +21°C° 0.1 mm 3 mps 734 mmHg 93%
    04:00 +22°C° 0.1 mm 3 mps 734 mmHg 92%
    05:00 +22°C° 0.1 mm 3 mps 734 mmHg 92%
    06:00 +22°C° 0.1 mm 3 mps 734 mmHg 92%
    07:00 +23°C° 0.2 mm 4 mps 734 mmHg 87%
    08:00 +25°C° 0.2 mm 4 mps 735 mmHg 82%
    09:00 +27°C° 0.2 mm 5 mps 735 mmHg 77%
    10:00 +28°C° 0.1 mm 5 mps 735 mmHg 73%
    11:00 +29°C° 0.1 mm 5 mps 735 mmHg 68%
    12:00 +30°C° 0.1 mm 5 mps 735 mmHg 64%
    13:00 +29°C° 0.3 mm 5 mps 734 mmHg 67%
    14:00 +28°C° 0.3 mm 5 mps 734 mmHg 70%
    15:00 +28°C° 0.3 mm 5 mps 733 mmHg 74%
    16:00 +27°C° 0.2 mm 4 mps 733 mmHg 77%
    17:00 +26°C° 0.2 mm 4 mps 734 mmHg 80%
    18:00 +25°C° 0.2 mm 4 mps 734 mmHg 83%
    19:00 +25°C° 0.2 mm 4 mps 734 mmHg 86%
    20:00 +23°C° 0.2 mm 4 mps 735 mmHg 88%
    21:00 +24°C° 0.2 mm 3 mps 735 mmHg 91%
    22:00 +22°C° 0.2 mm 3 mps 735 mmHg 91%
    23:00 +22°C° 0.2 mm 3 mps 735 mmHg 92%

    27 November, Monday

    Time Temperature Precipitation Wind Pressure Humidity
    00:00 +22°C° 0.2 mm 3 mps 735 mmHg 92%
    01:00 +22°C° 0.1 mm 3 mps 734 mmHg 92%
    02:00 +22°C° 0.1 mm 3 mps 734 mmHg 93%
    03:00 +22°C° 0.1 mm 3 mps 733 mmHg 93%
    04:00 +22°C° 0.1 mm 3 mps 734 mmHg 92%
    05:00 +22°C° 0.1 mm 3 mps 734 mmHg 92%
    06:00 +22°C° 0.1 mm 3 mps 734 mmHg 92%
    07:00 +25°C° 0.1 mm 4 mps 735 mmHg 86%
    08:00 +26°C° 0.1 mm 4 mps 735 mmHg 80%
    09:00 +28°C° 0.1 mm 4 mps 736 mmHg 75%
    10:00 +29°C° 0.1 mm 5 mps 736 mmHg 70%
    11:00 +30°C° 0.1 mm 5 mps 735 mmHg 64%
    12:00 +32°C° 0.1 mm 5 mps 735 mmHg 59%
    13:00 +32°C° 0.1 mm 5 mps 735 mmHg 60%
    14:00 +30°C° 0.1 mm 5 mps 734 mmHg 62%
    15:00 +30°C° 0.1 mm 5 mps 734 mmHg 63%
    16:00 +29°C° 0.1 mm 4 mps 734 mmHg 70%
    17:00 +27°C° 0.1 mm 4 mps 734 mmHg 76%
    18:00 +26°C° 0.1 mm 4 mps 735 mmHg 82%
    19:00 +26°C° 0.1 mm 4 mps 735 mmHg 85%
    20:00 +25°C° 0.1 mm 4 mps 736 mmHg 87%
    21:00 +25°C° 0.1 mm 4 mps 736 mmHg 89%
    22:00 +25°C° 0.1 mm 4 mps 736 mmHg 89%
    23:00 +25°C° 0.1 mm 4 mps 736 mmHg 90%

    28 November, Tuesday

    Time Temperature Precipitation Wind Pressure Humidity
    00:00 +25°C° 0.1 mm 3 mps 736 mmHg 90%
    01:00 +25°C° 0.2 mm 3 mps 735 mmHg 90%
    02:00 +25°C° 0.2 mm 3 mps 735 mmHg 91%
    03:00 +25°C° 0.2 mm 3 mps 734 mmHg 92%
    04:00 +25°C° 0.4 mm 3 mps 735 mmHg 92%
    05:00 +25°C° 0.4 mm 3 mps 735 mmHg 92%
    06:00 +25°C° 0.4 mm 3 mps 735 mmHg 92%
    07:00 +25°C° 0.3 mm 3 mps 736 mmHg 89%
    08:00 +26°C° 0.3 mm 3 mps 736 mmHg 85%
    09:00 +27°C° 0.3 mm 3 mps 737 mmHg 82%
    10:00 +28°C° 0.6 mm 3 mps 736 mmHg 82%
    11:00 +28°C° 0.6 mm 3 mps 736 mmHg 83%
    12:00 +28°C° 0.6 mm 3 mps 736 mmHg 83%
    13:00 +27°C° 1.4 mm 3 mps 736 mmHg 86%
    14:00 +27°C° 1.4 mm 3 mps 735 mmHg 89%
    15:00 +26°C° 1.4 mm 3 mps 735 mmHg 91%
    16:00 +26°C° 0.7 mm 3 mps 735 mmHg 93%
    17:00 +25°C° 0.7 mm 3 mps 735 mmHg 94%
    18:00 +25°C° 0.7 mm 3 mps 736 mmHg 95%
    19:00 +25°C° 0.1 mm 2 mps 736 mmHg 95%
    20:00 +25°C° 0.1 mm 2 mps 736 mmHg 96%
    21:00 +25°C° 0.1 mm 2 mps 737 mmHg 96%
    22:00 +25°C° 0.2 mm 2 mps 737 mmHg 96%
    23:00 +25°C° 0.2 mm 2 mps 736 mmHg 96%

    29 November, Wednesday

    Time Temperature Precipitation Wind Pressure Humidity
    00:00 +25°C° 0.2 mm 2 mps 736 mmHg 96%
    01:00 +24°C° 0.2 mm 2 mps 736 mmHg 96%
    02:00 +24°C° 0.2 mm 2 mps 735 mmHg 97%
    03:00 +24°C° 0.2 mm 2 mps 735 mmHg 97%
    04:00 +24°C° 0.1 mm 2 mps 735 mmHg 96%
    05:00 +24°C° 0.1 mm 2 mps 736 mmHg 96%
    06:00 +24°C° 0.1 mm 2 mps 736 mmHg 96%
    07:00 +25°C° 0 mm 2 mps 736 mmHg 93%
    08:00 +26°C° 0 mm 2 mps 736 mmHg 89%
    09:00 +27°C° 0 mm 2 mps 737 mmHg 86%
    10:00 +28°C° 0 mm 2 mps 736 mmHg 79%
    11:00 +30°C° 0 mm 2 mps 736 mmHg 71%
    12:00 +31°C° 0 mm 2 mps 736 mmHg 64%
    13:00 +30°C° 0.5 mm 2 mps 735 mmHg 67%
    14:00 +30°C° 0.5 mm 2 mps 735 mmHg 70%
    15:00 +29°C° 0.5 mm 2 mps 734 mmHg 73%
    16:00 +28°C° 0.6 mm 2 mps 735 mmHg 78%
    17:00 +27°C° 0.6 mm 2 mps 735 mmHg 84%
    18:00 +26°C° 0.6 mm 2 mps 735 mmHg 89%
    19:00 +26°C° 0.2 mm 2 mps 735 mmHg 91%
    20:00 +25°C° 0.2 mm 1 mps 736 mmHg 93%
    21:00 +24°C° 0.2 mm 1 mps 736 mmHg 95%
    22:00 +24°C° 0 mm 1 mps 736 mmHg 95%
    23:00 +24°C° 0 mm 1 mps 736 mmHg 95%
    Show more